FENGYUN 1C DEB

Satellite information

Favourite Embed

Satellite Type and Status

DEBRISIN ORBIT

Key statistics

Satellite FENGYUN 1C DEB at a glance.

Uptime

9496

Days in orbit

Revolutions

≈ 13.6

Per day

Orbit

SSO

Sun Synchronous Orbit

Inclination

98.4

Latest

Satellite identification and parameters

Extended collection of information and parameters for FENGYUN 1C DEB.

Object identification

Identified? True

Debris? True

Object name: FENGYUN 1C DEB

International designator: 1999-025DXN

Object number (NORAD): 36644

Object ID (CCSDS): 36644

Country: PEOPLES REPUBLIC OF CHINA (PRC)

Current information (Y/N): Y

RCS size: SMALL

Orbital parameters

Period: 105.991 minutes

Inclination: 98.4004 deg

SMA: 7418.899 km

Apoapsis: 1253.613 km

Periapsis: 827.915 km

RAAN: 293.9903 deg

Eccentricy: 0.0286901

Argument of periapsis: 44.9929 deg

Mean anomaly: 317.4076 deg

Mean motion: 13.58606116 rev/day

Mean motion (dot): 0.00001401 rev/day2

B* drag term: 0.0015018 1/REarth

Two-line elements (TLE)

Creation date: May 8, 2025, 3:01 a.m.

Reference frame: TEME

Reference center: EARTH

Epoch: May 4, 2025, 4:34 a.m. UTC

TLE line 0: 0 FENGYUN 1C DEB

TLE line 1: 1 36644U 99025DXN 25124.19035649 .00001401 00000-0 15018-2 0 9992

TLE line 2: 2 36644 98.4004 293.9903 0286901 44.9929 317.4076 13.58606116585450

Live tracking on map

Real-time ground track for satellite FENGYUN 1C DEB.

In-orbit conjunctions

A list of the most updated potential collisions computed for object FENGYUN 1C DEB.

Target Orbit TCA Probability of collision Miss distance Type
SL-14 DEB LEO 2024-11-14 17:38:54 0.0001290754 730.0 (m) DEBRIS
SL-8 R/B LEO 2024-08-14 19:33:24 0.0002526303 163.0 (m) ROCKET BODY
COSMOS 2034 LEO 2024-07-06 15:46:21 0.0002849212 720.0 (m) PAYLOAD

Associated space launch

Chinese polar orbiting meteorological satellite

FENGYUN 1C DEB was lifted into orbit during the mission ‘Long March 4B | Feng Yun 1C’, on board a Long March 4B space rocket.

The launch took place on May 10, 1999, 1:33 a.m. from Launch Complex 7.

For more information about the launch, click the button.

Launch to space Long March 4B | Feng Yun 1C
Long March 4B | Feng Yun 1C

Agency: N/A

Status: Launch Successful

Launch date: May 10, 1999, 1:33 a.m. UTC

Rocket: Long March 4B

Launch pad: Launch Complex 7

Location: Taiyuan Satellite Launch Center, People's Republic of China

...

Latest news about this satellite

There are no fresh news available about this satellite. Check back as we update our databases every day.


Newsletter sign-up

Weekly statistics, charts and insights to help you stay on top of the space industry.